When you browse on this site, cookies collect data to enhance your experience and personalize the content and advertising you see.
Visit our Privacy Policy to learn more. By continuing to use the site, you agree to this use of cookies and data.
  • Em Portugal
  • Lista de países
  • Para 7 dias
  • Temperatura da água
  • Mapas de satélite
  • Mapa do tempo
  • Widgets de tempo
  • user-avatar
    Iniciar Sessão

    Previsão horária em Kruszki

    Hoje, 27 Maio, Segunda-feira

    Tempo Temperatura Precipitação Vento Pressão Humidade
    00:00 +12°C° 0 mm 4 m/s 735 mmHg 85%
    01:00 +11°C° 0 mm 4 m/s 735 mmHg 87%
    02:00 +11°C° 0 mm 3 m/s 734 mmHg 90%
    03:00 +11°C° 0 mm 3 m/s 734 mmHg 91%
    04:00 +11°C° 0 mm 4 m/s 734 mmHg 91%
    05:00 +11°C° 0 mm 4 m/s 734 mmHg 92%
    06:00 +13°C° 0 mm 4 m/s 734 mmHg 87%
    07:00 +14°C° 0 mm 5 m/s 734 mmHg 82%
    08:00 +16°C° 0 mm 6 m/s 734 mmHg 75%
    09:00 +17°C° 0.1 mm 6 m/s 734 mmHg 72%
    10:00 +18°C° 0.1 mm 7 m/s 734 mmHg 68%
    11:00 +20°C° 0.1 mm 7 m/s 734 mmHg 65%
    12:00 +21°C° 0.3 mm 7 m/s 734 mmHg 64%
    13:00 +21°C° 0.3 mm 7 m/s 734 mmHg 63%
    14:00 +22°C° 0.3 mm 7 m/s 734 mmHg 63%
    15:00 +21°C° 0.7 mm 6 m/s 734 mmHg 67%
    16:00 +20°C° 0.7 mm 5 m/s 734 mmHg 72%
    17:00 +20°C° 0.7 mm 5 m/s 734 mmHg 76%
    18:00 +19°C° 0.2 mm 4 m/s 734 mmHg 81%
    19:00 +17°C° 0.2 mm 3 m/s 734 mmHg 85%
    20:00 +16°C° 0.2 mm 2 m/s 734 mmHg 90%
    21:00 +15°C° 0 mm 1 m/s 735 mmHg 92%
    22:00 +14°C° 0 mm 1 m/s 735 mmHg 94%
    23:00 +13°C° 0 mm 1 m/s 735 mmHg 96%

    Amanhã, 28 Maio, Terça-feira

    Tempo Temperatura Precipitação Vento Pressão Humidade
    00:00 +13°C° 0 mm 1 m/s 735 mmHg 96%
    01:00 +13°C° 0 mm 2 m/s 735 mmHg 96%
    02:00 +13°C° 0 mm 2 m/s 734 mmHg 96%
    03:00 +13°C° 0.2 mm 2 m/s 734 mmHg 96%
    04:00 +13°C° 0.2 mm 2 m/s 734 mmHg 96%
    05:00 +14°C° 0.2 mm 2 m/s 733 mmHg 96%
    06:00 +14°C° 1.8 mm 2 m/s 733 mmHg 97%
    07:00 +14°C° 1.8 mm 3 m/s 733 mmHg 97%
    08:00 +14°C° 1.8 mm 3 m/s 732 mmHg 97%
    09:00 +15°C° 3.2 mm 4 m/s 732 mmHg 97%
    10:00 +15°C° 3.2 mm 5 m/s 732 mmHg 96%
    11:00 +16°C° 3.2 mm 6 m/s 731 mmHg 95%
    12:00 +17°C° 0.1 mm 6 m/s 731 mmHg 89%
    13:00 +19°C° 0.1 mm 6 m/s 731 mmHg 84%
    14:00 +20°C° 0.1 mm 7 m/s 731 mmHg 78%
    15:00 +20°C° 0.1 mm 6 m/s 732 mmHg 78%
    16:00 +20°C° 0.1 mm 5 m/s 732 mmHg 78%
    17:00 +21°C° 0.1 mm 5 m/s 732 mmHg 78%
    18:00 +19°C° 0.2 mm 4 m/s 732 mmHg 84%
    19:00 +17°C° 0.2 mm 3 m/s 733 mmHg 89%
    20:00 +14°C° 0.2 mm 3 m/s 733 mmHg 94%
    21:00 +13°C° 0.6 mm 3 m/s 733 mmHg 95%
    22:00 +12°C° 0.6 mm 3 m/s 733 mmHg 96%
    23:00 +11°C° 0.6 mm 3 m/s 733 mmHg 97%

    Depois de amanhã, 29 Maio, Quarta-feira

    Tempo Temperatura Precipitação Vento Pressão Humidade
    00:00 +10°C° 0.1 mm 4 m/s 734 mmHg 97%
    01:00 +10°C° 0.1 mm 4 m/s 734 mmHg 97%
    02:00 +10°C° 0.1 mm 4 m/s 734 mmHg 97%
    03:00 +8°C° 0.4 mm 4 m/s 734 mmHg 96%
    04:00 +8°C° 0.4 mm 5 m/s 734 mmHg 96%
    05:00 +8°C° 0.4 mm 5 m/s 735 mmHg 95%
    06:00 +8°C° 1 mm 5 m/s 735 mmHg 95%
    07:00 +8°C° 1 mm 5 m/s 736 mmHg 95%
    08:00 +7°C° 1 mm 4 m/s 736 mmHg 94%
    09:00 +7°C° 1 mm 4 m/s 737 mmHg 94%
    10:00 +7°C° 1 mm 4 m/s 737 mmHg 94%
    11:00 +7°C° 1 mm 4 m/s 738 mmHg 93%
    12:00 +10°C° 0 mm 4 m/s 739 mmHg 86%
    13:00 +12°C° 0 mm 4 m/s 739 mmHg 79%
    14:00 +14°C° 0 mm 4 m/s 740 mmHg 72%
    15:00 +14°C° 0 mm 5 m/s 740 mmHg 70%
    16:00 +14°C° 0 mm 5 m/s 740 mmHg 68%
    17:00 +14°C° 0 mm 5 m/s 740 mmHg 67%
    18:00 +12°C° 0 mm 5 m/s 741 mmHg 70%
    19:00 +9°C° 0 mm 5 m/s 741 mmHg 73%
    20:00 +8°C° 0 mm 4 m/s 741 mmHg 76%
    21:00 +7°C° 0 mm 4 m/s 742 mmHg 78%
    22:00 +6°C° 0 mm 4 m/s 742 mmHg 80%
    23:00 +4°C° 0 mm 4 m/s 742 mmHg 81%

    30 Maio, Quinta-feira

    Tempo Temperatura Precipitação Vento Pressão Humidade
    00:00 +4°C° 0 mm 4 m/s 743 mmHg 82%
    01:00 +4°C° 0 mm 4 m/s 743 mmHg 83%
    02:00 +3°C° 0 mm 4 m/s 743 mmHg 84%
    03:00 +3°C° 0 mm 3 m/s 743 mmHg 87%
    04:00 +3°C° 0 mm 3 m/s 743 mmHg 89%
    05:00 +3°C° 0 mm 3 m/s 743 mmHg 92%
    06:00 +5°C° 0 mm 3 m/s 743 mmHg 84%
    07:00 +8°C° 0 mm 3 m/s 743 mmHg 77%
    08:00 +9°C° 0 mm 3 m/s 743 mmHg 69%
    09:00 +11°C° 0 mm 3 m/s 743 mmHg 66%
    10:00 +12°C° 0 mm 3 m/s 743 mmHg 64%
    11:00 +14°C° 0 mm 3 m/s 743 mmHg 61%
    12:00 +16°C° 0 mm 3 m/s 743 mmHg 59%
    13:00 +16°C° 0 mm 3 m/s 743 mmHg 57%
    14:00 +17°C° 0 mm 3 m/s 743 mmHg 55%
    15:00 +17°C° 0 mm 3 m/s 743 mmHg 57%
    16:00 +17°C° 0 mm 3 m/s 743 mmHg 58%
    17:00 +17°C° 0 mm 3 m/s 743 mmHg 60%
    18:00 +15°C° 0 mm 2 m/s 743 mmHg 66%
    19:00 +14°C° 0 mm 2 m/s 743 mmHg 72%
    20:00 +13°C° 0 mm 2 m/s 743 mmHg 78%
    21:00 +11°C° 0 mm 1 m/s 743 mmHg 80%
    22:00 +10°C° 0 mm 1 m/s 743 mmHg 83%
    23:00 +8°C° 0 mm 1 m/s 743 mmHg 86%

    31 Maio, Sexta-feira

    Tempo Temperatura Precipitação Vento Pressão Humidade
    00:00 +8°C° 0 mm 1 m/s 743 mmHg 86%
    01:00 +8°C° 0 mm 1 m/s 743 mmHg 85%
    02:00 +8°C° 0 mm 1 m/s 743 mmHg 85%
    03:00 +7°C° 0 mm 2 m/s 743 mmHg 85%
    04:00 +7°C° 0 mm 2 m/s 743 mmHg 85%
    05:00 +7°C° 0 mm 2 m/s 743 mmHg 85%
    06:00 +9°C° 0 mm 2 m/s 744 mmHg 81%
    07:00 +11°C° 0 mm 3 m/s 744 mmHg 76%
    08:00 +13°C° 0 mm 3 m/s 744 mmHg 71%
    09:00 +16°C° 0 mm 3 m/s 744 mmHg 67%
    10:00 +17°C° 0 mm 3 m/s 744 mmHg 63%
    11:00 +19°C° 0 mm 2 m/s 744 mmHg 60%
    12:00 +19°C° 0.1 mm 2 m/s 744 mmHg 61%
    13:00 +19°C° 0.1 mm 3 m/s 744 mmHg 61%
    14:00 +20°C° 0.1 mm 3 m/s 744 mmHg 62%
    15:00 +18°C° 0.3 mm 3 m/s 744 mmHg 71%
    16:00 +17°C° 0.3 mm 3 m/s 744 mmHg 79%
    17:00 +14°C° 0.3 mm 3 m/s 744 mmHg 88%
    18:00 +14°C° 0 mm 3 m/s 744 mmHg 89%
    19:00 +14°C° 0 mm 2 m/s 745 mmHg 91%
    20:00 +14°C° 0 mm 2 m/s 745 mmHg 92%
    21:00 +13°C° 0 mm 2 m/s 745 mmHg 94%
    22:00 +12°C° 0 mm 2 m/s 745 mmHg 96%
    23:00 +10°C° 0 mm 2 m/s 745 mmHg 97%

    1 Junho, Sábado

    Tempo Temperatura Precipitação Vento Pressão Humidade
    00:00 +10°C° 0 mm 2 m/s 745 mmHg 97%
    01:00 +9°C° 0 mm 2 m/s 745 mmHg 98%
    02:00 +9°C° 0 mm 2 m/s 746 mmHg 98%
    03:00 +9°C° 0 mm 2 m/s 746 mmHg 98%
    04:00 +9°C° 0 mm 2 m/s 746 mmHg 97%
    05:00 +9°C° 0 mm 2 m/s 746 mmHg 97%
    06:00 +10°C° 0 mm 2 m/s 746 mmHg 92%
    07:00 +13°C° 0 mm 2 m/s 746 mmHg 88%
    08:00 +14°C° 0 mm 2 m/s 746 mmHg 83%
    09:00 +15°C° 0 mm 2 m/s 746 mmHg 79%
    10:00 +16°C° 0 mm 2 m/s 746 mmHg 75%
    11:00 +17°C° 0 mm 2 m/s 746 mmHg 71%
    12:00 +18°C° 0 mm 2 m/s 746 mmHg 69%
    13:00 +18°C° 0 mm 2 m/s 746 mmHg 68%
    14:00 +19°C° 0 mm 2 m/s 746 mmHg 67%
    15:00 +19°C° 0 mm 2 m/s 746 mmHg 67%
    16:00 +19°C° 0 mm 3 m/s 746 mmHg 68%
    17:00 +18°C° 0 mm 3 m/s 746 mmHg 69%
    18:00 +17°C° 0 mm 2 m/s 745 mmHg 74%
    19:00 +16°C° 0 mm 2 m/s 745 mmHg 79%
    20:00 +15°C° 0 mm 2 m/s 745 mmHg 84%
    21:00 +14°C° 0 mm 2 m/s 745 mmHg 86%
    22:00 +12°C° 0 mm 1 m/s 746 mmHg 89%
    23:00 +11°C° 0 mm 1 m/s 746 mmHg 91%
    Mostrar mais